sat.trackr.live / text

‹ back to catalog

STARLINK-30987

NORAD 58487 · 2023-186Q

PAYLOAD ACTIVE UNKNOWN

§ Identity

Operator
Country
US
Launch date
2023-12-03
Launch site
AFETR
Launch vehicle
Mass (kg)
RCS (m²)

Purposes: comms

External: N2YO · Heavens-Above · Gunter

§ Orbital elements

Epoch: 2026-09-20T16:01:07.591872Z

Period
94.27 min
Inclination
43.0025°
Eccentricity
0.0001337
Mean motion
15.27577466 rev/d
Perigee alt
482.1 km
Apogee alt
484.0 km
Semi-major
6,861.2 km
B*
1.7175e-5
RAAN
42.6757°
Arg perigee
268.1754°
Mean anomaly
91.8944°
Rev number
15,570

§ Raw data

STARLINK-309871 58487U 23186Q   26263.66744898  .00000210  00000+0  17175-4 0  99902 58487  43.0025  42.6757 0001337 268.1754  91.8944 15.27577466155709

JSON: /api/v1/satellites/58487 · /tle

For live sub-satellite position, see the globe view (requires WebGL).

§ Visibility from observer

Set your observer location to see the next 7 days of passes ≥ 10°. The values pass through the URL so the page stays shareable.

No JS? Fill the form by hand. The geolocation button needs JavaScript.